Waarnemingen

Advertentie
Mijn weer
Greifswalder Oie, Duitsland (10097): temperatuur & dauwpunt: 20.09.2018 09:00:00 - 26.09.2018 09:00:00 (CEST)Greifswalder Oie, Duitsland (10097): temperatuur 5cm & temperatuur -5cm: 20.09.2018 09:00:00 - 26.09.2018 09:00:00 (CEST)Greifswalder Oie, Duitsland (10097): temperatuur -20cm & temperatuur -100cm: 20.09.2018 09:00:00 - 26.09.2018 09:00:00 (CEST)Greifswalder Oie, Duitsland (10097): water temperatuur: 20.09.2018 09:00:00 - 26.09.2018 09:00:00 (CEST)Greifswalder Oie, Duitsland (10097): windsnelheid & windstoten: 20.09.2018 09:00:00 - 26.09.2018 09:00:00 (CEST)Greifswalder Oie, Duitsland (10097): windrichting: 20.09.2018 09:00:00 - 26.09.2018 09:00:00 (CEST)Greifswalder Oie, Duitsland (10097): luchtdruk: 20.09.2018 09:00:00 - 26.09.2018 09:00:00 (CEST)Greifswalder Oie, Duitsland (10097): zicht: 20.09.2018 09:00:00 - 26.09.2018 09:00:00 (CEST)Greifswalder Oie, Duitsland (10097): Zonneschijnduur: 20.09.2018 09:00:00 - 26.09.2018 09:00:00 (CEST)Greifswalder Oie, Duitsland (10097): neerslag: 20.09.2018 09:00:00 - 26.09.2018 09:00:00 (CEST)
Datum & Tijd tt [°C] td [°C] tt 5cm [°C] tt -5cm [°C] tt -20cm [°C] tt -100cm [°C] tw [°C] ff [km/u] ff [kn] fx [km/u] fx [kn] dd ppp [hPa] vv [km] sd [min] rr [mm]
26.09.2018 09:00:00 11,1 6,5 11,1 9,7 11,4 16,0 14,1 41 22 51 28 ZW 1029,2 43 0 0,0
26.09.2018 08:00:00 10,6 6,9 10,3 9,4 11,4 16,0 14,2 40 22 51 28 ZW 1030,3 39 0 0,0
26.09.2018 07:00:00 10,5 6,6 10,1 9,2 11,5 16,0 14,2 42 23 52 28 ZW 1030,7 42 0 0,0
26.09.2018 06:00:00 10,6 6,9 10,1 9,1 11,5 16,0 14,4 44 24 51 27 ZW 1031,2 41 0 0,0
26.09.2018 05:00:00 10,4 6,7 9,8 9,0 11,6 16,0 14,6 37 20 44 24 ZW 1032,3 52 0 0,0
26.09.2018 04:00:00 10,1 6,1 9,4 8,7 11,7 16,0 14,7 34 19 44 24 ZW 1033,0 55 0 0,0
26.09.2018 03:00:00 10,5 6,6 9,4 8,8 11,9 16,1 14,7 33 18 40 22 ZW 1033,4 58 0 0,0
26.09.2018 02:00:00 10,6 6,3 9,4 9,0 12,1 16,1 14,8 32 18 42 23 ZW 1034,1 61 0 0,0
26.09.2018 01:00:00 11,1 6,6 10,0 9,2 12,2 16,1 14,8 33 18 38 20 ZW 1034,6 57 0 0,0
26.09.2018 00:00:00 11,1 6,8 9,9 9,5 12,4 16,1 14,6 29 16 38 21 WZW 1034,9 63 0 0,0
25.09.2018 23:00:00 12,0 8,2 10,8 9,8 12,6 16,1 14,9 29 16 39 21 WZW 1035,3 55 0 0,0
25.09.2018 22:00:00 12,2 6,2 11,2 9,9 12,8 16,2 15,1 32 17 41 22 W 1035,4 70 0 0,0
25.09.2018 21:00:00 12,5 6,3 11,6 9,9 13,1 16,2 15,2 31 17 41 22 W 1035,4 67 0 0,0
25.09.2018 20:00:00 12,2 4,6 11,5 10,1 13,4 16,2 15,2 33 18 45 25 WNW 1035,4 70 0 0,0
25.09.2018 19:00:00 12,1 4,3 11,5 11,0 13,7 16,2 15,2 36 19 46 25 WNW 1035,5 70 30 0,0
25.09.2018 18:00:00 12,7 5,8 12,5 12,7 13,8 16,3 15,2 35 19 45 25 WNW 1035,3 38 54 0,0
25.09.2018 17:00:00 13,5 5,4 13,7 14,1 13,8 16,3 15,3 29 16 49 26 WNW 1035,4 14 60 0,0
25.09.2018 16:00:00 13,7 5,0 14,5 15,0 13,6 16,3 15,3 31 17 42 23 WNW 1035,1 15 55 0,0
25.09.2018 15:00:00 15,6 5,8 17,0 15,8 13,2 16,3 15,3 29 16 42 23 WNW 1035,2 11 60 0,0
25.09.2018 14:00:00 15,2 5,0 15,9 15,3 12,7 16,4 15,2 34 18 43 23 WNW 1035,2 13 60 0,0
25.09.2018 13:00:00 15,6 3,9 15,8 14,5 12,2 16,4 15,1 33 18 44 24 NW 1034,9 22 60 0,0
25.09.2018 12:00:00 15,3 5,8 15,1 13,3 11,8 16,4 15,0 37 20 49 27 NW 1034,3 23 55 0,0
25.09.2018 11:00:00 14,1 6,5 14,3 11,7 11,4 16,4 15,0 41 22 51 28 NW 1033,5 16 60 0,0
25.09.2018 10:00:00 12,3 7,3 11,7 9,9 11,3 16,4 14,9 38 20 52 28 NW 1033,0 49 18 0,0
25.09.2018 09:00:00 11,1 8,1 10,6 9,3 11,3 16,5 15,0 47 26 58 31 NW 1032,0 30 8 0,0
25.09.2018 08:00:00 10,7 7,5 10,2 8,8 11,3 16,5 14,9 40 22 50 27 WNW 1031,2 59 0 0,0
25.09.2018 07:00:00 11,3 6,8 10,8 8,5 11,3 16,5 14,6 35 19 46 25 WNW 1030,7 52 0 0,0
25.09.2018 06:00:00 10,8 3,5 10,5 8,3 11,5 16,5 14,5 40 22 50 27 WNW 1030,0 70 0 0,0
25.09.2018 05:00:00 10,7 4,8 10,0 8,2 11,6 16,5 14,6 41 22 53 29 WNW 1029,5 70 0 0,0
25.09.2018 04:00:00 10,3 4,5 9,7 8,7 11,7 16,6 14,6 50 27 62 33 NW 1028,9 66 0 0,0
25.09.2018 03:00:00 10,1 5,7 9,4 8,5 11,8 16,6 14,6 40 21 60 32 WNW 1028,3 70 0 0,9
25.09.2018 02:00:00 10,4 5,2 10,0 8,4 12,0 16,6 14,8 48 26 56 30 WNW 1027,6 70 0 0,0
25.09.2018 01:00:00 10,6 4,2 9,9 8,3 12,2 16,6 15,0 45 24 69 38 NW 1027,1 70 0 0,0
25.09.2018 00:00:00 10,0 5,8 9,4 8,5 12,5 16,6 15,1 48 26 70 38 NW 1026,4 70 0 0,2
24.09.2018 23:00:00 8,3 4,9 6,2 9,0 12,7 16,7 15,2 50 27 71 38 NW 1026,2 1,9 0 0,7
24.09.2018 22:00:00 9,6 4,4 7,5 9,4 13,0 16,7 15,3 22 12 58 32 N 1025,7 55 0 0,0
24.09.2018 21:00:00 10,4 3,5 9,0 9,4 13,3 16,7 15,4 28 15 73 39 NNW 1024,7 70 0 0,2
24.09.2018 20:00:00 10,3 6,4 9,5 9,8 13,6 16,7 15,5 37 20 64 34 WNW 1023,9 25 0 0,0
24.09.2018 19:00:00 9,4 5,7 8,6 10,3 13,9 16,7 15,5 27 15 56 31 NW 1022,9 69 0 1,5
24.09.2018 18:00:00 10,0 4,4 8,2 11,2 14,2 16,8 15,6 55 30 74 40 N 1022,9 44 0 1,1
24.09.2018 17:00:00 12,3 5,6 12,0 12,9 14,3 16,8 15,5 45 24 59 32 WNW 1021,9 40 19 0,0
24.09.2018 16:00:00 13,5 5,7 13,9 15,3 14,2 16,8 15,7 47 26 67 36 NW 1021,4 21 51 0,0
24.09.2018 15:00:00 14,5 6,1 15,3 15,5 13,8 16,8 15,3 55 30 69 38 NW 1020,9 12 60 0,0
24.09.2018 14:00:00 13,5 5,8 13,8 14,8 13,5 16,8 15,3 63 34 80 43 NW 1020,2 20 50 0,0
24.09.2018 13:00:00 14,6 7,1 15,0 14,3 13,1 16,9 14,9 57 31 78 42 NW 1019,5 31 58 0,0
24.09.2018 12:00:00 14,0 6,6 13,9 13,2 12,8 16,9 14,9 58 32 74 40 NW 1018,3 10 58 0,0
24.09.2018 11:00:00 13,2 7,2 12,6 11,5 12,7 16,9 15,2 58 32 71 39 NW 1016,9 17 59 0,0
24.09.2018 10:00:00 10,7 8,4 10,3 9,9 12,7 16,9 15,3 50 27 69 38 NW 1016,2 49 6 2,6
24.09.2018 09:00:00 11,5 8,0 10,9 10,1 12,8 16,9 15,4 55 30 71 39 NW 1014,8 24 18 1,6
24.09.2018 08:00:00 9,9 7,5 8,9 9,9 12,9 17,0 15,2 56 30 72 39 NW 1014,0 21 0 0,6
24.09.2018 07:00:00 11,5 7,9 11,2 10,1 13,0 17,0 15,2 53 29 69 37 NW 1013,1 38 0 0,0
24.09.2018 06:00:00 11,4 7,5 11,0 10,0 13,2 17,0 15,2 55 30 77 41 WNW 1012,6 42 0 0,0
24.09.2018 05:00:00 11,3 7,5 10,9 10,2 13,3 17,0 15,1 59 32 75 41 NW 1012,0 38 0 0,0
24.09.2018 04:00:00 11,6 8,0 11,2 10,3 13,4 17,0 15,1 54 29 67 36 WNW 1011,1 33 0 0,0
24.09.2018 03:00:00 11,7 8,2 11,2 10,3 13,6 17,0 15,2 51 28 62 33 WNW 1010,3 37 0 0,0
24.09.2018 02:00:00 11,4 7,4 11,0 10,6 13,8 17,1 15,3 50 27 61 33 NW 1009,7 47 0 0,0
24.09.2018 01:00:00 11,8 7,9 11,4 11,0 13,9 17,1 15,4 45 24 57 31 WNW 1008,9 51 0 0,0
24.09.2018 00:00:00 12,0 8,2 11,6 11,1 14,1 17,1 15,4 44 24 54 29 NW 1008,2 56 0 0,0
23.09.2018 23:00:00 11,9 8,2 11,5 11,4 14,3 17,1 15,5 46 25 51 28 NW 1007,6 52 0 0,0
23.09.2018 22:00:00 11,8 9,0 11,1 11,4 14,5 17,1 15,6 35 19 43 23 WNW 1007,1 55 0 0,4
23.09.2018 21:00:00 11,3 7,7 10,4 11,5 14,8 17,2 15,7 30 16 38 20 WNW 1007,1 60 0 0,3
23.09.2018 20:00:00 9,7 6,8 8,7 12,2 15,0 17,2 15,6 23 12 48 26 NW 1006,9 9 0 3,0
23.09.2018 19:00:00 10,9 7,3 9,4 13,0 15,1 17,2 15,7 13 7 48 26 NNW 1007,0 59 0 0,4
23.09.2018 18:00:00 13,3 7,5 13,1 13,6 15,2 17,2 15,8 22 12 29 16 W 1007,4 46 0 0,0
23.09.2018 17:00:00 13,2 7,9 13,0 14,2 15,2 17,3 15,9 19 11 33 18 WZW 1007,7 49 0 0,0
23.09.2018 16:00:00 13,4 7,9 13,6 15,2 15,1 17,3 16,1 26 14 31 17 WZW 1009,1 41 0 0,0
23.09.2018 15:00:00 13,8 8,6 15,0 15,9 14,8 17,3 16,0 24 13 37 20 WZW 1009,5 36 20 0,0
23.09.2018 14:00:00 13,9 8,1 15,7 15,7 14,5 17,3 15,9 29 16 39 21 WZW 1010,4 22 31 0,0
23.09.2018 13:00:00 13,7 8,6 15,1 15,3 14,2 17,3 15,7 29 15 37 20 WZW 1011,1 23 49 0,0
23.09.2018 12:00:00 13,1 9,0 14,7 14,6 13,9 17,4 15,5 29 15 42 23 WZW 1011,4 14 57 0,0
23.09.2018 11:00:00 12,1 9,1 13,1 13,0 13,8 17,4 15,3 35 19 47 25 WZW 1011,7 14 36 0,0
23.09.2018 10:00:00 11,2 9,0 11,7 12,0 13,7 17,4 15,3 35 19 50 27 W 1012,0 15 6 0,0
23.09.2018 09:00:00 11,2 9,3 11,8 11,5 13,8 17,4 15,2 43 23 52 28 W 1011,7 12 49 0,0
23.09.2018 08:00:00 10,6 9,0 10,4 10,9 13,8 17,4 15,2 40 21 56 30 WZW 1011,7 12 2 0,0
23.09.2018 07:00:00 11,1 9,5 10,5 10,9 14,0 17,4 15,3 44 24 59 32 WZW 1011,4 14 0 0,0
23.09.2018 06:00:00 11,3 9,3 10,7 10,9 14,1 17,5 15,3 48 26 59 32 WZW 1011,5 20 0 0,0
23.09.2018 05:00:00 11,4 9,4 10,9 11,0 14,2 17,5 15,4 44 24 55 30 WZW 1011,9 24 0 0,0
23.09.2018 04:00:00 11,8 9,4 11,0 11,2 14,3 17,5 15,4 49 26 64 34 WZW 1012,0 32 0 0,0
23.09.2018 03:00:00 12,2 9,5 11,6 11,3 14,4 17,5 15,4 51 27 66 35 WZW 1012,0 38 0 0,0
23.09.2018 02:00:00 12,3 9,1 11,6 11,4 14,6 17,5 15,5 53 29 66 35 WZW 1012,2 40 0 0,0
23.09.2018 01:00:00 12,7 9,1 11,9 11,5 14,7 17,5 15,7 55 30 64 35 WZW 1012,0 41 0 0,0
23.09.2018 00:00:00 12,2 8,9 11,5 11,6 14,9 17,6 15,7 48 26 69 37 WZW 1012,4 46 0 0,0
22.09.2018 23:00:00 13,0 9,4 12,2 11,7 15,1 17,6 16,0 51 28 65 35 WZW 1012,3 39 0 0,0
22.09.2018 22:00:00 13,0 9,3 12,2 11,8 15,3 17,6 16,1 46 25 60 32 WZW 1012,4 51 0 0,0
22.09.2018 21:00:00 12,9 9,0 12,0 12,1 15,6 17,6 16,4 45 24 58 31 WZW 1012,4 51 0 0,0
22.09.2018 20:00:00 13,0 9,1 12,2 12,6 15,8 17,6 16,2 48 26 64 35 WZW 1012,3 61 0 0,0
22.09.2018 19:00:00 13,4 9,4 12,8 13,1 16,0 17,6 16,3 52 28 64 35 WZW 1012,5 64 31 0,0
22.09.2018 18:00:00 13,3 9,3 13,6 13,8 16,2 17,7 16,4 52 28 74 40 WZW 1012,6 45 6 0,2
22.09.2018 17:00:00 14,2 9,8 13,9 14,6 16,3 17,7 16,7 52 28 68 37 WZW 1013,0 43 7 0,0
22.09.2018 16:00:00 14,5 9,0 14,6 15,2 16,2 17,7 16,8 54 29 88 48 WZW 1012,9 20 2 0,0
22.09.2018 15:00:00 16,3 8,0 18,4 16,7 16,1 17,7 17,0 49 26 59 32 WZW 1012,5 21 45 0,0
22.09.2018 14:00:00 15,1 8,4 15,4 16,1 15,9 17,7 17,1 47 26 58 31 WZW 1012,9 35 23 0,0
22.09.2018 13:00:00 15,0 9,0 15,9 16,6 15,6 17,7 17,0 45 24 56 30 WZW 1013,1 10 49 0,0
22.09.2018 12:00:00 14,7 9,5 15,9 15,5 15,3 17,7 16,8 44 24 59 32 WZW 1013,3 10 58 0,0
22.09.2018 11:00:00 13,7 9,7 14,5 13,9 15,1 17,7 16,6 44 24 61 33 WZW 1013,1 9 59 0,0
22.09.2018 10:00:00 13,0 9,6 13,2 12,8 15,1 17,7 16,4 50 27 61 33 WZW 1012,4 8 58 0,0
22.09.2018 09:00:00 12,2 9,2 11,9 11,9 15,2 17,7 16,4 51 27 61 33 WZW 1011,7 25 41 0,0
22.09.2018 08:00:00 11,9 9,4 11,7 11,6 15,4 17,7 16,4 46 25 64 35 WZW 1010,9 27 6 0,0
22.09.2018 07:00:00 11,6 9,3 11,0 11,5 15,6 17,7 16,5 51 27 68 37 WZW 1010,1 44 0 0,0
22.09.2018 06:00:00 11,5 8,8 11,1 11,3 15,9 17,7 16,9 50 27 65 35 WZW 1009,7 59 0 0,0
22.09.2018 05:00:00 11,5 7,9 10,7 11,4 16,2 17,7 17,1 51 28 63 34 WZW 1009,3 70 0 0,0
22.09.2018 04:00:00 12,2 8,1 11,4 11,7 16,5 17,7 17,2 52 28 74 40 WZW 1008,7 70 0 0,0
22.09.2018 03:00:00 12,6 7,4 11,8 11,9 16,9 17,7 17,3 54 29 74 40 WZW 1008,0 70 0 0,0
22.09.2018 02:00:00 13,2 7,9 12,3 12,4 17,2 17,7 17,3 58 32 79 43 WZW 1007,4 70 0 0,0
22.09.2018 01:00:00 13,4 9,6 12,4 12,9 17,6 17,7 17,8 45 24 63 34 ZW 1007,4 58 0 0,0
22.09.2018 00:00:00 14,0 9,4 13,1 13,3 18,1 17,7 17,8 49 27 71 38 WZW 1007,1 61 0 0,0
21.09.2018 23:00:00 14,3 9,5 13,5 13,9 18,5 17,7 18,3 50 27 72 39 WZW 1006,6 55 0 0,0
21.09.2018 22:00:00 15,0 9,8 14,0 14,7 18,9 17,7 18,2 53 28 77 42 W 1005,6 55 0 0,6
21.09.2018 21:00:00 14,7 12,5 13,9 15,5 19,3 17,7 18,3 45 24 55 30 WZW 1004,9 38 0 0,0
21.09.2018 20:00:00 14,9 12,0 13,9 15,8 19,8 17,7 18,4 38 20 57 31 WZW 1004,0 49 0 0,1
21.09.2018 19:00:00 14,9 12,3 13,8 16,4 20,4 17,7 18,6 42 23 65 35 W 1003,5 34 0 0,9
21.09.2018 18:00:00 15,6 13,8 14,6 17,4 20,9 17,7 19,0 49 26 82 45 W 1003,4 15 0 7,6
21.09.2018 17:00:00 14,8 12,9 14,1 21,2 21,0 17,7 19,1 69 38 106 57 WNW 1002,3 3,5 0 0,6
21.09.2018 16:00:00 25,3 13,3 25,1 23,9 20,8 17,7 19,6 48 26 72 39 ZZW 998,8 20 2 0,0
21.09.2018 15:00:00 25,1 15,1 26,3 24,5 20,6 17,7 20,1 51 28 76 41 ZZW 999,4 10 29 0,0
21.09.2018 14:00:00 24,7 15,2 26,9 24,6 20,2 17,7 19,8 29 16 46 25 Z 1000,6 24 28 0,0
21.09.2018 13:00:00 23,6 15,7 27,0 24,2 19,7 17,7 19,6 23 12 37 20 Z 1001,6 17 53 0,0
21.09.2018 12:00:00 22,6 15,7 25,6 22,7 19,3 17,7 19,2 20 11 35 19 Z 1002,9 12 60 0,0
21.09.2018 11:00:00 21,3 14,9 23,4 20,7 19,1 17,7 18,8 19 11 36 19 Z 1003,8 9 58 0,0
21.09.2018 10:00:00 20,0 14,1 21,5 19,3 19,0 17,7 18,7 22 12 35 19 Z 1004,4 13 60 0,0
21.09.2018 09:00:00 19,4 13,5 19,6 18,1 19,1 17,6 18,4 20 11 37 20 Z 1005,3 17 59 0,0
21.09.2018 08:00:00 18,7 13,6 18,0 17,7 19,2 17,6 18,5 19 11 31 17 Z 1005,9 16 26 0,0
21.09.2018 07:00:00 19,1 13,9 17,7 17,6 19,4 17,6 18,7 21 11 32 18 Z 1006,8 28 0 0,0
21.09.2018 06:00:00 19,1 15,0 17,5 17,8 19,5 17,6 18,6 18 10 29 16 Z 1007,5 25 0 0,0
21.09.2018 05:00:00 18,9 15,2 17,0 18,0 19,7 17,6 18,8 13 7 24 13 ZZO 1008,3 25 0 0,0
21.09.2018 04:00:00 19,0 15,5 17,4 18,1 19,9 17,6 19,0 12 7 23 12 Z 1009,4 23 0 0,0
21.09.2018 03:00:00 18,5 15,4 16,4 18,4 20,1 17,6 19,1 9 5 19 10 Z 1010,0 20 0 0,0
21.09.2018 02:00:00 18,9 15,3 17,4 18,7 20,2 17,6 19,2 13 7 22 12 Z 1010,8 21 0 0,0
21.09.2018 01:00:00 19,3 15,2 17,7 19,0 20,5 17,6 19,3 17 9 23 12 Z 1011,3 22 0 0,0
21.09.2018 00:00:00 19,5 14,9 18,0 19,3 20,7 17,6 19,5 17 9 22 12 Z 1012,1 24 0 0,0
20.09.2018 23:00:00 19,5 15,3 17,9 19,7 20,9 17,6 19,5 14 7 19 10 Z 1012,4 23 0 0,0
20.09.2018 22:00:00 19,7 16,0 18,0 20,2 21,1 17,6 19,5 10 5 16 9 Z 1012,7 24 0 0,0
20.09.2018 21:00:00 20,6 15,3 18,9 20,9 21,3 17,6 19,9 11 6 20 11 Z 1013,1 25 0 0,0
20.09.2018 20:00:00 22,3 13,6 20,7 21,8 21,5 17,6 20,4 14 8 21 11 Z 1013,3 28 0 0,0
20.09.2018 19:00:00 22,5 13,9 22,0 23,0 21,5 17,6 20,6 17 9 20 11 Z 1013,6 28 12 0,0
20.09.2018 18:00:00 22,1 14,6 22,3 23,8 21,5 17,6 19,8 11 6 19 11 ZW 1014,1 33 0 0,0
20.09.2018 17:00:00 22,2 15,2 23,2 24,8 21,3 17,6 20,6 16 9 27 15 WZW 1014,2 32 14 0,0
20.09.2018 16:00:00 22,7 15,3 25,3 25,8 21,0 17,6 20,2 16 9 27 15 WZW 1014,5 28 36 0,0
20.09.2018 15:00:00 23,2 15,7 26,6 26,0 20,5 17,6 20,1 20 11 30 16 WZW 1014,9 14 60 0,0
20.09.2018 14:00:00 21,6 15,1 24,3 25,1 20,1 17,5 19,7 26 14 36 19 W 1015,3 9 58 0,0
20.09.2018 13:00:00 22,3 14,7 25,2 24,0 19,6 17,5 19,3 28 15 35 19 WZW 1015,5 10 60 0,0
20.09.2018 12:00:00 21,2 15,1 23,8 22,1 19,3 17,5 19,0 21 12 33 18 WZW 1015,8 15 60 0,0
20.09.2018 11:00:00 20,3 14,4 21,7 20,1 19,2 17,5 18,7 25 13 32 17 WZW 1016,3 16 60 0,0
20.09.2018 10:00:00 19,3 13,8 20,0 18,9 19,2 17,5 18,5 23 13 31 17 ZW 1016,2 17 58 0,0
20.09.2018 09:00:00 18,6 13,5 18,7 18,0 19,3 17,5 18,4 26 14 33 18 ZZW 1016,2 13 27 0,0

tt = temperatuur
td = dauwpunt
tt 5cm = temperatuur 5cm
tt -5cm = temperatuur -5cm
tt -20cm = temperatuur -20cm
tt -100cm = temperatuur -100cm
tw = water temperatuur
ff = windsnelheid
fx = windstoten
dd = windrichting
ppp = luchtdruk
vv = zicht
sd = Zonneschijnduur
rr = neerslag

Weerstations in de omgeving